Weather History for Tallahassee, FL

Change the Weather History Date:

Wednesday, May 22, 2013

  Actual Average Record
Temperature  
Mean Temperature 84 °F 76 °F  
Max Temperature 94 °F 88 °F 99 °F (1938)
Min Temperature 73 °F 64 °F 45 °F (1981)
Degree Days  
Heating Degree Days 0    
Month to date heating degree days 14  
Since 1 July heating degree days 1332  
Cooling Degree Days 19    
Month to date cooling degree days 142  
Year to date cooling degree days 339  
Growing Degree Days 28 (Base 50)    
Moisture  
Dew Point 64 °F    
Average Humidity 61    
Maximum Humidity 87    
Minimum Humidity 34    
Precipitation  
Precipitation 0.00 in 0.12 in 2.93 in (1967)
Month to date precipitation 0.36 2.13  
Year to date precipitation 22.32 20.32  
Sea Level Pressure  
Sea Level Pressure 29.96 in    
Wind  
Wind Speed 2 mph (SE)    
Max Wind Speed 14 mph    
Max Gust Speed 17 mph    
Visibility 10 miles    
Events Thunderstorm    
T = Trace of Precipitation, MM = Missing Value Source: NWS Daily Summary

Daily Weather History Graph

Daily Weather History Graph

Search for Another Location

Airport:

Trip Planner

Search our weather history database for the weather conditions in past years. The results will help you decide how hot, cold, wet, or windy it might be!

Date:

Astronomy

May. 22, 2013 Rise Set
Actual Time 6:39 AM EDT 8:29 PM EDT
Civil Twilight 6:12 AM EDT 8:55 PM EDT
Nautical Twilight 5:40 AM EDT 9:28 PM EDT
Astronomical Twilight 5:06 AM EDT 10:02 PM EDT
Moon 5:59 PM EDT (5/22) 4:31 AM EDT (5/22)
Length of Visible Light 14h 43m
Length of Day
13h 49m
Waxing Gibbous, 91% of the Moon is Illuminated
May 22
Waxing Gibbous
May 25
Full
May 31
Last Quarter
Jun 8
New
Jun 16
First Quarter

Hourly Weather History & Observations

Time (EDT) Temp. Heat Index Dew Point Humidity Pressure Visibility Wind Dir Wind Speed Gust Speed Precip Events Conditions
12:53 AM 73.0 °F - 64.0 °F 73% 29.98 in 10.0 mi Calm Calm - N/A   Clear
1:53 AM 69.1 °F - 63.0 °F 81% 29.96 in 10.0 mi Calm Calm - N/A   Clear
2:53 AM 68.0 °F - 63.0 °F 84% 29.95 in 10.0 mi Calm Calm - N/A   Clear
3:53 AM 66.9 °F - 62.1 °F 84% 29.94 in 10.0 mi Calm Calm - N/A   Clear
4:53 AM 64.9 °F - 61.0 °F 87% 29.94 in 10.0 mi Calm Calm - N/A   Clear
5:29 AM 66.2 °F - 62.6 °F 88% 29.95 in 10.0 mi Calm Calm - N/A   Mostly Cloudy
5:53 AM 66.9 °F - 62.1 °F 84% 29.95 in 10.0 mi Calm Calm - N/A   Mostly Cloudy
6:28 AM 66.2 °F - 62.6 °F 88% 29.96 in 10.0 mi Calm Calm - N/A   Partly Cloudy
6:53 AM 64.9 °F - 61.0 °F 87% 29.97 in 10.0 mi Calm Calm - N/A   Partly Cloudy
7:09 AM 64.4 °F - 60.8 °F 88% 29.98 in 10.0 mi Calm Calm - N/A   Mostly Cloudy
7:53 AM 72.0 °F - 64.9 °F 78% 29.98 in 10.0 mi Calm Calm - N/A   Mostly Cloudy
8:03 AM 71.6 °F - 66.2 °F 83% 29.98 in 10.0 mi NE 3.5 mph - N/A   Partly Cloudy
8:16 AM 73.4 °F - 66.2 °F 78% 29.98 in 10.0 mi East 4.6 mph - N/A   Scattered Clouds
8:53 AM 75.0 °F - 66.9 °F 76% 29.99 in 10.0 mi East 4.6 mph - N/A   Mostly Cloudy
9:13 AM 75.2 °F - 66.2 °F 73% 29.99 in 10.0 mi Calm Calm - N/A   Mostly Cloudy
9:36 AM 77.0 °F - 66.2 °F 69% 30.00 in 10.0 mi Calm Calm - N/A   Scattered Clouds
9:46 AM 78.8 °F - 66.2 °F 65% 29.99 in 10.0 mi Calm Calm - N/A   Mostly Cloudy
10:53 AM 82.9 °F 84.6 °F 64.9 °F 54% 30.00 in 10.0 mi East 3.5 mph - N/A   Mostly Cloudy
11:22 AM 84.2 °F 85.6 °F 64.4 °F 51% 30.01 in 10.0 mi ENE 4.6 mph - N/A   Mostly Cloudy
11:50 AM 84.2 °F 85.0 °F 62.6 °F 48% 30.00 in 10.0 mi Variable 5.8 mph - N/A   Scattered Clouds
11:53 AM 84.9 °F 85.9 °F 63.0 °F 48% 30.00 in 10.0 mi North 5.8 mph - N/A   Scattered Clouds
12:53 PM 86.0 °F 86.1 °F 61.0 °F 43% 29.99 in 10.0 mi Calm Calm - N/A   Scattered Clouds
1:53 PM 90.0 °F 90.0 °F 61.0 °F 38% 29.97 in 10.0 mi Calm Calm - N/A   Scattered Clouds
2:53 PM 90.0 °F 89.1 °F 59.0 °F 35% 29.94 in 10.0 mi Variable 4.6 mph - N/A   Scattered Clouds
3:53 PM 91.9 °F 91.2 °F 59.0 °F 33% 29.92 in 10.0 mi NNE 4.6 mph - N/A   Mostly Cloudy
4:53 PM 91.9 °F 91.2 °F 59.0 °F 33% 29.89 in 10.0 mi Variable 3.5 mph - N/A   Mostly Cloudy
5:53 PM 88.0 °F 88.4 °F 62.1 °F 42% 29.89 in 10.0 mi South 4.6 mph - N/A   Mostly Cloudy
6:14 PM 87.8 °F 89.4 °F 64.4 °F 46% 29.89 in 10.0 mi South 5.8 mph - N/A Thunderstorm Thunderstorm
6:49 PM 86.0 °F 88.2 °F 66.2 °F 51% 29.90 in 10.0 mi South 10.4 mph - N/A   Mostly Cloudy
6:53 PM 84.9 °F 87.1 °F 66.0 °F 53% 29.90 in 10.0 mi SSW 10.4 mph - N/A   Mostly Cloudy
7:53 PM 82.9 °F 85.4 °F 66.9 °F 58% 29.90 in 10.0 mi SW 5.8 mph - N/A   Partly Cloudy
8:53 PM 79.0 °F - 68.0 °F 69% 29.92 in 10.0 mi Calm Calm - N/A   Partly Cloudy
9:53 PM 78.1 °F - 69.1 °F 74% 29.93 in 10.0 mi Calm Calm - N/A   Clear
10:53 PM 75.0 °F - 69.1 °F 82% 29.94 in 10.0 mi Calm Calm - N/A   Clear
11:53 PM 73.9 °F - 69.1 °F 85% 29.94 in 10.0 mi WSW 3.5 mph - N/A   Clear